Location: Caltech
(34.1382°N, 118.1253°W)
Time: 08:23:20
(UTC-07:00)

KITSAT 1 - Visible Passes

Search period start: 21 April 2018 00:00
Search period end: 01 May 2018 00:00
Orbit: 1304 x 1327 km, 66.1° (Epoch: 20 April)

Date Brightness Start Highest point End Pass type
(mag) Time Alt. Az. Time Alt. Az. Time Alt. Az.
21 Apr 11.0 00:06:14 10° NNW 00:11:35 45° N 00:11:35 45° N visible
21 Apr 12.4 02:03:30 10° WNW 02:03:33 10° WNW 02:03:33 10° WNW visible
21 Apr 11.6 22:28:00 10° N 22:34:15 23° NE 22:35:09 23° NE visible
22 Apr 11.2 00:22:18 10° NNW 00:27:07 40° NW 00:27:07 40° NW visible
22 Apr 11.2 22:43:32 10° N 22:50:43 34° NE 22:50:43 34° NE visible
23 Apr 11.5 00:38:35 10° NW 00:42:41 31° NW 00:42:41 31° NW visible
23 Apr 12.2 21:07:42 10° NNE 21:09:29 11° NNE 21:11:15 10° NE visible
23 Apr 10.8 22:59:16 10° NNW 23:06:19 47° NE 23:06:19 47° NE visible
24 Apr 11.8 00:55:10 10° NW 00:58:18 22° WNW 00:58:18 22° WNW visible
24 Apr 12.0 21:21:47 10° N 21:26:24 16° NE 21:29:59 12° ENE visible
24 Apr 10.5 23:15:09 10° NNW 23:21:57 61° N 23:21:57 61° N visible
25 Apr 12.2 01:12:18 10° WNW 01:13:55 14° WNW 01:13:55 14° WNW visible
25 Apr 11.6 21:36:59 10° N 21:43:07 23° NE 21:45:37 20° ENE visible
25 Apr 10.6 23:31:13 10° NNW 23:37:36 59° NW 23:37:36 59° NW visible
26 Apr 11.1 21:52:30 10° N 21:59:39 33° NE 22:01:19 30° ENE visible
26 Apr 11.0 23:47:29 10° NW 23:53:18 44° WNW 23:53:18 44° WNW visible
27 Apr 12.2 20:17:01 10° NNE 20:18:19 10° NNE 20:19:37 10° NE visible
27 Apr 10.6 22:08:13 10° NNW 22:16:01 47° ENE 22:17:02 45° ENE visible
28 Apr 11.5 00:04:02 10° NW 00:09:01 30° W 00:09:01 30° W visible
28 Apr 12.0 20:30:48 10° N 20:35:16 15° NE 20:39:42 10° ENE visible
28 Apr 10.1 22:24:05 10° NNW 22:32:13 70° ENE 22:32:48 67° E visible
29 Apr 11.9 00:21:06 10° WNW 00:24:47 19° W 00:24:47 19° W visible
29 Apr 11.6 20:45:57 10° N 20:52:00 22° NE 20:56:36 14° E visible
29 Apr 10.1 22:40:08 10° NNW 22:48:16 81° WSW 22:48:35 80° SSW visible
30 Apr 12.3 00:39:34 10° WNW 00:40:34 11° W 00:40:34 11° W visible
30 Apr 11.2 21:01:27 10° N 21:08:32 32° NE 21:12:26 22° E visible
30 Apr 10.5 22:56:23 10° NW 23:04:13 54° WSW 23:04:25 54° WSW visible
